RH
89 86 81 87 92 94 98 98 91 84 92 95 95 86 81 91 96 95 94 92 88 89 87 88 88 83 88 94 95 91 93 98 84 84 88 89 90 92 90 87 93 95 97
87 86 84 85 91 90 88 87 86 87 85 87 94 96 96 96 96 94 95 92 89 87 85 88 85 85 96 98 99 100 92 78 79 84 85 85 88 90 92 87 90 95 96
83 85 84 86 90 87 86 87 87 87 88 88 92 95 94 94 92 94 94 93 90 97 89 80 84 94 92 95 98 96 77 80 80 79 79 82 82 90 92 88 89 96 97
82 85 84 87 88 84 90 84 86 81 81 85 94 96 99 96 96 94 96 93 95 97 91 89 86 91 95 92 93 94 77 79 81 84 87 92 92 94 96 96 96 97 96
89 85 81 88 87 84 87 83 80 78 71 73 78 82 80 88 96 94 91 92 87 94 91 94 84 86 93 90 88 82 73 77 82 85 89 92 90 96 97 98 95 86 90
97 85 82 86 84 88 83 82 82 83 73 76 74 84 85 90 89 87 86 77 69 80 72 77 95 94 74 68 81 71 64 65 70 82 87 92 97 97 97 97 97 95 97
98 88 84 84 85 86 81 83 83 76 73 74 78 80 87 87 86 87 77 66 88 80 74 78 95 95 70 73 70 67 66 69 65 66 87 92 94 97 95 94 90 95 96
96 87 83 83 85 82 86 83 77 74 75 78 79 78 82 82 84 81 73 70 84 73 71 91 94 93 73 70 67 64 64 73 70 62 70 89 91 94 92 90 94 95 92
89 85 86 82 80 82 80 76 77 70 77 83 78 74 72 72 78 75 73 80 72 65 75 89 92 84 69 71 67 61 60 64 67 68 72 75 76 84 88 89 95 97 95
92 83 84 80 78 75 76 76 70 75 82 78 73 71 71 75 74 72 69 77 71 60 76 84 94 71 67 68 66 64 64 69 68 66 72 72 68 77 84 91 96 94 89
93 81 82 78 76 74 74 72 72 75 82 73 73 73 73 73 75 69 74 77 74 67 58 77 88 67 65 66 66 66 67 67 74 68 73 76 79 82 88 97 95 91 88
99 86 78 77 76 76 77 77 78 80 78 75 75 74 72 76 78 71 74 79 88 76 63 60 71 67 66 64 63 66 67 65 63 77 79 75 83 90 97 97 97 94 88
98 95 82 80 76 79 81 81 83 78 74 77 76 73 70 73 75 69 79 91 98 84 63 51 70 70 68 64 65 67 68 66 70 82 84 83 92 99 99 98 96 94 89
95 95 91 82 79 79 78 80 81 75 74 76 76 73 72 73 76 68 76 99 93 82 72 54 71 74 71 68 64 64 63 67 71 90 93 92 96 98 98 96 96 90 85
98 98 94 80 80 77 78 79 81 76 73 75 76 74 70 73 78 78 74 74 74 73 79 54 72 73 72 66 66 63 65 67 69 91 96 91 95 93 95 94 92 84 87
99 100 91 77 75 76 75 77 80 74 74 75 75 73 72 72 81 80 77 73 69 73 80 55 74 74 71 67 64 67 66 70 79 81 86 88 93 90 91 84 85 86 85
84 87 90 82 73 74 75 75 80 74 74 74 72 76 71 70 74 82 78 73 73 77 75 68 77 74 69 66 66 62 67 75 74 83 92 94 91 86 84 85 80 82 94
64 83 94 96 71 71 71 74 79 80 75 73 71 76 70 70 71 81 77 74 74 75 70 77 76 69 67 70 67 66 64 81 80 86 93 94 88 81 80 82 78 90 88
56 68 87 96 75 67 70 72 79 82 76 74 72 75 71 71 69 75 79 78 76 76 68 78 73 68 69 79 76 74 75 88 86 87 91 92 85 83 77 80 80 86 77
49 60 71 84 91 76 70 80 88 91 89 81 75 74 72 73 71 67 80 81 77 76 72 81 70 79 83 80 70 85 88 92 94 96 91 93 89 86 77 78 90 72 68
56 60 83 93 100 94 96 100 100 96 93 86 78 75 73 73 75 74 73 82 78 74 72 82 79 88 100 93 80 100 100 99 99 100 100 96 97 87 80 78 88 75 79
60 61 81 100 100 100 100 100 99 97 94 86 80 75 76 76 78 79 76 78 79 76 74 83 78 98 99 100 96 90 92 96 100 100 100 100 97 93 83 81 90 82 85
89 88 94 100 100 99 100 100 100 100 100 100 95 87 86 79 77 77 78 76 78 76 74 79 80 83 90 98 90 78 86 85 89 98 100 98 100 95 90 84 92 86 82
94 93 99 99 100 99 99 100 100 99 98 98 98 89 87 85 78 77 79 75 75 76 77 80 77 84 76 78 84 72 67 71 92 94 97 100 99 96 93 93 97 90 81
91 98 98 100 100 96 100 100 100 100 99 96 98 98 95 81 79 78 78 76 74 74 77 82 84 79 82 73 73 70 67 74 79 88 93 93 100 99 99 98 100 95 87
90 95 98 97 96 98 100 100 100 99 97 99 99 100 94 86 84 84 81 77 74 75 76 77 81 81 78 76 73 71 65 64 71 78 90 92 94 98 100 95 100 94 91
Wind_Speed
20 31 28 25 23 22 21 21 20 21 22 22 21 21 21 21 21 20 20 19 18 16 15 15 16 16 16 18 18 18 19 20 21 20 20 20 20 19 19 21 21 22 22
30 33 29 27 24 23 23 22 21 22 22 21 20 20 19 19 20 20 19 18 16 16 17 17 17 16 18 18 19 20 20 20 19 18 19 19 19 19 19 20 23 22 23
34 32 29 28 26 24 24 24 24 24 23 22 21 20 19 19 18 19 19 17 16 17 20 18 16 18 17 16 16 18 19 20 20 19 19 18 17 18 19 20 22 22 22
35 32 30 28 27 26 25 25 24 23 21 20 19 18 17 18 17 17 17 17 16 19 19 19 17 18 17 17 16 15 17 18 18 19 19 19 18 17 18 21 22 23 22
34 32 31 29 28 26 25 25 23 21 19 19 20 16 16 15 13 15 15 16 16 18 18 17 17 17 16 14 12 14 15 16 17 19 20 21 19 18 21 22 21 21 20
32 32 30 29 28 26 26 24 23 22 21 18 16 14 14 12 13 14 17 15 14 15 14 14 16 15 14 12 13 14 14 14 15 16 19 20 20 19 21 21 20 19 21
32 32 30 29 27 25 24 25 23 21 18 16 17 14 13 12 13 14 16 14 18 16 16 14 16 15 15 15 16 14 11 12 13 15 17 19 19 19 19 19 18 19 19
33 32 30 28 26 25 26 24 22 19 14 14 16 15 14 13 14 16 15 17 19 15 13 15 17 15 16 17 16 13 10 13 13 13 14 16 16 16 16 17 17 19 17
30 32 30 27 26 26 25 24 22 16 15 17 17 16 14 14 16 16 15 18 16 11 13 16 17 16 16 18 15 13 12 12 11 14 14 15 14 12 14 16 17 20 19
30 32 31 29 27 27 25 23 19 19 18 18 16 16 14 14 16 16 16 15 13 11 17 19 17 16 15 17 16 14 14 13 13 15 15 15 13 11 12 15 19 20 19
28 32 31 30 29 27 26 24 20 20 20 19 17 17 16 15 16 15 16 15 17 16 17 18 17 15 14 15 15 14 13 12 12 13 15 14 11 14 16 20 20 20 18
25 33 33 31 30 28 28 26 22 22 21 20 18 18 18 17 16 16 15 14 19 18 16 17 18 16 17 18 13 13 12 10 13 11 13 12 15 15 20 21 18 18 18
28 31 35 33 33 31 29 27 25 24 23 22 20 19 19 18 18 17 16 18 23 19 16 18 19 17 20 18 16 13 11 12 13 10 13 14 12 23 21 19 16 17 17
25 28 33 34 35 34 31 30 28 27 26 26 24 22 21 21 21 20 19 20 20 17 13 17 19 18 19 18 15 13 12 13 8 14 12 14 22 21 20 16 16 16 16
23 25 29 35 34 36 34 35 30 30 29 29 27 26 23 20 24 23 21 19 15 17 14 17 19 18 19 16 14 11 12 11 10 13 13 16 19 18 18 15 14 13 14
30 27 28 32 32 34 34 35 33 32 31 29 29 28 26 22 26 25 22 21 18 16 16 18 20 19 18 16 14 12 12 13 13 13 13 14 17 15 17 13 14 14 16
28 32 30 28 31 33 33 34 34 34 32 31 30 29 28 23 27 28 24 20 19 15 16 19 19 18 18 16 16 13 12 12 12 13 14 17 17 14 16 15 13 15 15
26 28 28 27 30 33 32 33 35 35 35 34 32 31 29 24 23 29 26 20 20 16 17 21 18 18 18 16 16 14 13 13 12 13 14 16 17 15 14 17 15 16 16
29 29 29 26 30 32 32 32 34 36 37 36 32 31 30 24 24 29 28 23 20 18 19 21 19 19 19 18 16 15 12 13 12 13 14 17 18 17 14 19 17 18 14
33 31 32 28 26 31 31 32 32 33 32 34 33 33 31 26 26 28 28 25 22 20 22 20 21 19 20 21 17 13 11 10 12 13 14 19 21 18 15 19 21 16 14
30 32 31 28 24 28 30 28 26 29 31 31 32 32 32 29 29 28 28 28 25 23 26 21 22 22 20 19 19 9 6 9 10 11 15 17 20 21 18 20 21 18 15
25 30 30 25 24 26 28 28 24 31 32 36 34 32 31 31 30 30 30 29 28 26 26 24 25 24 19 23 9 9 1 2 7 10 14 18 21 20 20 20 22 20 18
5 14 23 24 24 26 27 26 22 26 19 23 29 32 32 32 32 32 33 31 31 30 31 28 27 30 22 22 19 7 2 3 2 7 10 18 21 23 21 22 23 22 19
16 5 14 20 23 26 26 29 30 26 20 22 29 34 32 32 33 33 33 33 32 33 34 32 30 31 29 28 18 10 7 8 3 1 8 13 15 18 21 22 25 25 22
19 13 6 16 24 27 30 28 29 23 25 25 30 31 33 34 34 34 33 35 33 35 36 36 33 34 34 33 30 19 11 9 7 3 2 9 17 21 23 24 25 25 23
19 16 10 6 20 26 29 28 28 27 28 25 27 29 32 35 34 32 34 37 35 34 37 37 36 37 39 35 37 33 27 12 8 5 2 3 10 13 22 24 24 24 23
Wind_Direction
178 171 170 167 162 155 149 142 138 140 138 137 137 138 139 135 133 132 129 125 118 112 110 108 109 107 104 101 98 97 96 90 93 92 93 95 98 93 96 98 96 91 89
167 169 169 166 163 158 154 148 145 142 141 140 139 139 140 139 137 135 131 124 118 116 112 111 108 112 108 104 103 101 98 97 97 99 95 94 94 94 95 98 95 92 91
165 169 169 167 165 161 158 153 148 144 141 138 135 133 139 143 146 144 134 127 124 124 116 112 118 111 109 106 105 103 103 101 101 104 104 101 99 98 97 95 94 92 92
164 170 169 168 165 161 160 155 151 148 146 143 135 134 128 130 126 132 129 128 130 125 119 117 121 115 113 107 104 107 112 106 102 102 102 103 102 101 100 97 94 92 90
167 170 169 169 167 165 161 159 155 152 153 156 152 150 159 148 130 129 127 131 129 131 125 121 126 121 122 121 110 110 116 116 113 105 100 102 104 104 100 97 97 98 97
170 172 170 171 170 167 163 162 155 153 147 148 147 147 154 146 143 140 146 146 142 141 135 129 131 122 126 120 124 122 113 122 122 110 102 101 100 101 100 98 97 96 94
174 174 170 171 171 168 165 164 161 161 157 152 147 157 150 146 147 147 153 154 147 144 134 140 134 128 130 129 130 121 114 123 121 120 110 102 101 98 97 96 95 92 90
176 175 172 173 173 170 166 164 162 162 166 166 160 160 154 151 150 151 157 156 151 156 147 135 138 133 135 137 136 123 118 128 117 115 125 114 105 101 99 98 101 99 92
179 175 173 173 170 168 169 166 166 182 179 164 162 163 163 163 161 157 158 155 163 163 152 142 140 139 139 142 139 128 111 140 138 122 119 124 119 102 106 106 107 102 94
179 179 176 178 175 173 173 173 180 173 173 168 165 167 171 161 164 165 180 161 161 157 150 146 145 144 141 145 143 136 127 130 130 126 124 125 123 121 127 122 112 102 95
182 183 182 180 182 179 177 183 184 179 172 166 169 176 170 166 167 168 162 162 168 156 155 150 151 146 143 147 149 145 144 138 130 143 136 132 147 129 128 123 114 108 104
184 188 188 188 186 183 180 179 180 170 170 171 175 175 172 167 168 171 181 179 166 157 154 156 154 148 149 147 154 151 148 144 159 147 145 144 133 144 130 118 112 109 108
188 192 193 195 191 188 184 181 177 174 174 177 178 180 179 177 172 174 172 173 157 156 157 162 156 153 155 154 154 151 149 138 151 161 144 153 150 129 122 118 114 112 113
188 194 200 202 195 191 192 188 184 179 179 183 183 184 186 179 175 179 173 158 159 165 166 165 160 154 158 154 156 156 148 152 143 147 141 138 130 125 122 120 121 118 119
189 196 201 205 203 194 192 189 187 186 187 186 187 188 189 181 177 181 182 182 180 187 185 171 164 158 160 160 157 170 162 170 163 137 139 145 136 133 124 124 125 125 133
201 201 200 204 207 201 196 195 190 193 192 189 191 191 191 190 182 183 185 189 200 204 190 177 168 162 158 160 172 169 165 162 162 160 153 152 146 137 127 129 134 137 142
206 210 206 205 205 207 204 200 193 193 196 195 197 195 193 196 188 186 186 189 193 192 185 175 170 169 162 166 169 174 170 169 169 169 164 157 150 145 140 139 144 153 153
211 209 208 208 206 207 206 200 194 195 199 199 201 197 195 200 194 189 189 188 188 194 189 178 176 171 169 178 177 173 176 174 170 167 168 166 159 153 156 152 153 159 145
216 211 208 205 209 208 208 203 199 200 202 203 200 200 197 202 195 191 192 190 191 192 187 182 179 179 179 178 175 168 173 178 182 180 180 179 175 173 170 165 167 156 160
224 212 211 205 207 206 205 201 200 199 197 201 202 201 200 202 197 194 193 193 192 193 186 185 186 181 179 175 174 163 173 187 198 197 191 191 184 182 182 175 170 168 174
224 212 209 200 197 201 196 182 185 192 198 202 207 205 203 204 202 199 196 197 196 196 189 187 183 178 167 171 165 150 173 195 205 203 198 198 194 185 187 186 183 176 176
223 210 204 197 194 193 193 191 191 199 203 207 208 208 205 208 207 205 203 201 199 195 193 191 188 175 175 175 154 137 136 199 218 206 197 197 197 196 196 199 196 188 181
85 198 201 199 197 194 194 186 190 192 195 193 205 206 207 209 210 210 207 206 203 200 199 199 195 189 178 183 167 162 143 213 167 225 213 213 204 204 205 205 203 198 196
12 346 210 210 206 198 188 186 186 183 181 201 202 209 211 213 213 214 213 210 209 206 206 206 205 200 197 195 195 194 169 152 170 235 228 220 215 220 214 208 207 205 202
11 358 312 213 207 205 198 189 187 186 193 200 205 206 206 212 214 213 214 214 213 213 213 213 208 208 207 204 200 196 182 174 156 127 192 217 222 225 224 220 215 208 209
11 8 3 230 211 206 204 197 192 200 201 194 200 202 204 211 214 218 218 218 217 217 218 218 218 215 213 215 213 210 205 188 183 160 142 208 211 233 222 223 222 221 221